Regional Weather Roundup
Issued by NWS

Home | Current Version | Previous Version | Graphics & Text | Print | Product List | Glossary Off
Versions: 1 2 3 4 5 6 7 8 9 10 11 12 13 14 15 16 17 18 19 20 21 22 23 24 25 26 27 28 29 30 31 32 33 34 35 36 37 38 39 40 41 42 43 44 45 46 47 48 49 50

000
ASUS43 KTOP 020108
RWRKS

WEATHER ROUNDUP FOR KANSAS
NATIONAL WEATHER SERVICE GOODLAND KS
800 PM CDT WED JUL 01 2015

NOTE:  "FAIR" INDICATES FEW OR NO CLOUDS BELOW 12,000 FEET WITH NO
SIGNIFICANT WEATHER AND/OR OBSTRUCTIONS TO VISIBILITY.

KSZ001>006-013>018-027>032-041>047-020200-
NORTHWEST KANSAS

CITY           SKY/WX    TMP DP  RH WIND       PRES   REMARKS
GOODLAND       PTSUNNY   89  54  30 NE9       29.98R
HAYS           SUNNY     93  55  27 NE12      29.86R
HILL CITY      SUNNY     92  52  25 NE10      29.89R
RUSSELL        SUNNY     93  61  34 NE8       29.83R
$$

KSZ061>065-074>080-084>089-020200-
SOUTHWEST KANSAS

CITY           SKY/WX    TMP DP  RH WIND       PRES   REMARKS
DODGE CITY     SUNNY     92  54  27 NE14      29.89R
ELKHART          N/A     93  54  26 E10         N/A
GARDEN CITY    SUNNY     93  53  25 NE15      29.90R
GREAT BEND     SUNNY     91  63  38 E6        29.84R
LIBERAL        SUNNY     93  55  27 NE10      29.91R
PRATT          CLEAR     91  55  29 N9        29.84S
$$

KSZ066>073-081>083-090>101-020200-
SOUTHEAST KANSAS

CITY           SKY/WX    TMP DP  RH WIND       PRES   REMARKS
CHANUTE        PTCLDY    86  73  65 S13       29.78S
COFFEYVILLE    CLOUDY    88  72  58 S16       29.77F
HUTCHINSON     CLEAR     92  65  40 N7        29.79R
MEDICINE LODGE   N/A     94  60  32 N9        29.77R
NEWTON         CLEAR     90  66  45 NE8       29.81
PARSONS        MOCLDY    87  74  64 S10       29.79S HX  95
WICHITA INTL   PTCLDY    95  66  38 NW6       29.75R HX  98
WICHITA JABRA  CLEAR     94  67  41 NW3       29.76R HX  97
WICHITA MCCONL CLOUDY    93  65  39 S16G23    29.76R HX  96
WINFIELD       PTCLDY    92  65  40 S14       29.77R
$$

KSZ007>012-019>026-033>040-048>060-102>105-020200-
NORTHEAST KANSAS

CITY           SKY/WX    TMP DP  RH WIND       PRES   REMARKS
CONCORDIA      CLEAR     86  69  56 NE9       29.82R
EMPORIA        CLEAR     87  72  60 S7        29.77F
LAWRENCE       CLEAR     85  76  74 NE7       29.77S
MANHATTAN      CLEAR     90  69  50 E8        29.78R
MARYSVILLE     CLEAR     82  72  69 E6        29.83R
OLATHE IND     CLEAR     86  75  69 S5        29.79S HX  95
OLATHE EXE     PTCLDY    84  76  76 S7        29.78F
SALINA         CLEAR     93  63  36 N7        29.79R
TOPEKA BILLARD CLEAR     85  76  74 NE12      29.78R
TOPEKA FORBES  CLEAR     89  71  55 NW5       29.78S HX  95
$$


USA.gov is the U.S. government's official web portal to all federal, state and local government web resources and services.